Weather History for Sauk Centre, MN

Change the Weather History Date:

Sunday, February 17, 2013

  Actual Average (KGHW) Record (KGHW)
Temperature  
Mean Temperature 18 °F -  
Max Temperature 28 °F 27 °F 58 °F (1981)
Min Temperature 8 °F 9 °F -21 °F (1958)
Degree Days  
Heating Degree Days 47    
Moisture  
Dew Point 15 °F    
Average Humidity 83    
Maximum Humidity 92    
Minimum Humidity 74    
Precipitation  
Precipitation 0.00 in - - ()
Sea Level Pressure  
Sea Level Pressure 29.77 in    
Wind  
Wind Speed 11 mph (SE)    
Max Wind Speed 17 mph    
Max Gust Speed 24 mph    
Visibility 10 miles    
Events      
Averages and records for this station are not official NWS values.
T = Trace of Precipitation, MM = Missing Value Source: NWS Daily Summary

Daily Weather History Graph

Daily Weather History Graph

Search for Another Location

Airport:

Trip Planner

Search our weather history database for the weather conditions in past years. The results will help you decide how hot, cold, wet, or windy it might be!

Date:

Astronomy

Feb. 17, 2013 Rise Set
Actual Time 7:18 AM CST 5:49 PM CST
Civil Twilight 6:47 AM CST 6:20 PM CST
Nautical Twilight 6:13 AM CST 6:55 PM CST
Astronomical Twilight 5:38 AM CST 7:29 PM CST
Moon 10:47 AM CST (2/17) 1:09 AM CST (2/17)
Length of Visible Light 11h 32m
Length of Day
10h 31m
Waxing Crescent, 49% of the Moon is Illuminated
Feb 17
Waxing Crescent
Feb 17
First Quarter
Feb 25
Full
Mar 4
Last Quarter
Mar 11
New

Hourly Weather History & Observations

Time (CST) Temp. Windchill Dew Point Humidity Pressure Visibility Wind Dir Wind Speed Gust Speed Precip Events Conditions
12:15 AM 10.4 °F -1.5 °F 5.0 °F 79% 30.02 in 10.0 mi SSE 8.1 mph - N/A   Overcast
12:35 AM 10.4 °F -0.4 °F 5.0 °F 79% 30.01 in 10.0 mi SE 6.9 mph - N/A   Overcast
12:55 AM 10.4 °F -3.3 °F 5.0 °F 79% 30.00 in 10.0 mi SE 10.4 mph - N/A   Overcast
1:15 AM 10.4 °F -2.4 °F 5.0 °F 79% 30.00 in 10.0 mi ESE 9.2 mph 16.1 mph N/A   Overcast
1:35 AM 10.4 °F -1.5 °F 5.0 °F 79% 30.01 in 10.0 mi ESE 8.1 mph - N/A   Overcast
1:55 AM 10.4 °F -0.4 °F 5.0 °F 79% 30.00 in 10.0 mi ESE 6.9 mph - N/A   Mostly Cloudy
2:15 AM 8.6 °F -3.7 °F 3.2 °F 79% 30.00 in 10.0 mi ESE 8.1 mph - N/A   Clear
2:35 AM 8.6 °F -2.6 °F 3.2 °F 79% 29.99 in 10.0 mi ESE 6.9 mph - N/A   Scattered Clouds
2:55 AM 8.6 °F -2.6 °F 5.0 °F 85% 29.99 in 10.0 mi ESE 6.9 mph - N/A   Mostly Cloudy
3:15 AM 10.4 °F 0.8 °F 6.8 °F 85% 29.98 in 10.0 mi ESE 5.8 mph - N/A   Overcast
3:35 AM 10.4 °F -1.5 °F 6.8 °F 85% 29.97 in 10.0 mi SE 8.1 mph - N/A   Overcast
3:55 AM 10.4 °F -1.5 °F 5.0 °F 79% 29.96 in 10.0 mi SE 8.1 mph - N/A   Mostly Cloudy
4:15 AM 10.4 °F -1.5 °F 5.0 °F 79% 29.95 in 10.0 mi SE 8.1 mph - N/A   Mostly Cloudy
4:35 AM 8.6 °F -4.7 °F 5.0 °F 85% 29.94 in 10.0 mi SE 9.2 mph - N/A   Mostly Cloudy
4:55 AM 8.6 °F -4.7 °F 5.0 °F 85% 29.94 in 10.0 mi SE 9.2 mph - N/A   Scattered Clouds
5:15 AM 8.6 °F -4.7 °F 5.0 °F 85% 29.93 in 10.0 mi SE 9.2 mph - N/A   Mostly Cloudy
5:35 AM 10.4 °F -3.3 °F 8.6 °F 92% 29.93 in 10.0 mi SE 10.4 mph - N/A   Overcast
5:55 AM 10.4 °F -4.1 °F 8.6 °F 92% 29.92 in 10.0 mi SE 11.5 mph - N/A   Overcast
6:15 AM 10.4 °F -2.4 °F 8.6 °F 92% 29.92 in 10.0 mi SE 9.2 mph - N/A   Overcast
6:35 AM 10.4 °F -3.3 °F 8.6 °F 92% 29.91 in 10.0 mi SE 10.4 mph - N/A   Overcast
6:55 AM 12.2 °F -0.2 °F 8.6 °F 85% 29.90 in 10.0 mi SE 9.2 mph - N/A   Overcast
7:15 AM 12.2 °F -2.5 °F 8.6 °F 85% 29.89 in 10.0 mi SSE 12.7 mph - N/A   Overcast
7:55 AM 12.2 °F -1.0 °F 8.6 °F 85% 29.87 in 10.0 mi SE 10.4 mph - N/A   Overcast
8:15 AM 12.2 °F -1.0 °F 8.6 °F 85% 29.87 in 10.0 mi SE 10.4 mph - N/A   Mostly Cloudy
8:35 AM 12.2 °F -1.0 °F 10.4 °F 92% 29.87 in 10.0 mi SSE 10.4 mph - N/A   Mostly Cloudy
8:55 AM 12.2 °F -2.5 °F 10.4 °F 92% 29.85 in 10.0 mi SE 12.7 mph - N/A   Scattered Clouds
9:15 AM 14.0 °F -2.0 °F 10.4 °F 86% 29.83 in 10.0 mi SE 16.1 mph - N/A   Clear
9:35 AM 15.8 °F 1.4 °F 12.2 °F 86% 29.82 in 10.0 mi SE 13.8 mph - N/A   Clear
9:55 AM 17.6 °F 3.2 °F 12.2 °F 79% 29.82 in 10.0 mi SE 15.0 mph - N/A   Clear
10:15 AM 17.6 °F 5.0 °F 14.0 °F 86% 29.82 in 10.0 mi SSE 11.5 mph - N/A   Clear
10:35 AM 17.6 °F 3.7 °F 14.0 °F 86% 29.83 in 10.0 mi SSE 13.8 mph - N/A   Clear
10:55 AM 19.4 °F 6.6 °F 15.8 °F 86% 29.81 in 10.0 mi SE 12.7 mph - N/A   Clear
11:15 AM 21.2 °F 6.8 °F 15.8 °F 80% 29.80 in 10.0 mi SSE 17.3 mph 21.9 mph N/A   Clear
11:35 AM 21.2 °F 7.3 °F 17.6 °F 86% 29.80 in 10.0 mi SSE 16.1 mph 24.2 mph N/A   Clear
11:55 AM 23.0 °F 9.2 °F 17.6 °F 80% 29.79 in 10.0 mi SSE 17.3 mph - N/A   Clear
12:15 PM 23.0 °F 9.2 °F 17.6 °F 80% 29.77 in 10.0 mi SSE 17.3 mph - N/A   Clear
12:55 PM 24.8 °F 11.5 °F 19.4 °F 80% 29.75 in 10.0 mi SSE 17.3 mph - N/A   Clear
1:15 PM 24.8 °F 11.9 °F 19.4 °F 80% 29.74 in 10.0 mi SE 16.1 mph - N/A   Clear
1:35 PM 24.8 °F 13.4 °F 19.4 °F 80% 29.72 in 10.0 mi SE 12.7 mph - N/A   Clear
1:55 PM 26.6 °F 14.3 °F 19.4 °F 74% 29.71 in 10.0 mi SE 16.1 mph 21.9 mph N/A   Clear
2:15 PM 26.6 °F 14.7 °F 21.2 °F 80% 29.70 in 10.0 mi SE 15.0 mph 19.6 mph N/A   Clear
2:35 PM 26.6 °F 14.7 °F 21.2 °F 80% 29.68 in 10.0 mi SE 15.0 mph 20.7 mph N/A   Clear
2:55 PM 26.6 °F 14.3 °F 21.2 °F 80% 29.67 in 10.0 mi SE 16.1 mph - N/A   Clear
3:15 PM 28.4 °F 16.6 °F 21.2 °F 74% 29.67 in 10.0 mi SE 16.1 mph - N/A   Clear
3:35 PM 28.4 °F 16.6 °F 21.2 °F 74% 29.66 in 10.0 mi SE 16.1 mph - N/A   Scattered Clouds
3:55 PM 28.4 °F 16.2 °F 23.0 °F 80% 29.64 in 10.0 mi SE 17.3 mph 24.2 mph N/A   Clear
4:15 PM 28.4 °F 16.6 °F 23.0 °F 80% 29.64 in 10.0 mi SE 16.1 mph 20.7 mph N/A   Clear
4:35 PM 28.4 °F 18.5 °F 23.0 °F 80% 29.63 in 10.0 mi SE 11.5 mph 20.7 mph N/A   Clear
4:55 PM 28.4 °F 18.0 °F 23.0 °F 80% 29.62 in 10.0 mi SE 12.7 mph - N/A   Clear
5:15 PM 28.4 °F 17.0 °F 23.0 °F 80% 29.62 in 10.0 mi SE 15.0 mph 20.7 mph N/A   Clear
5:35 PM 28.4 °F 16.6 °F 23.0 °F 80% 29.61 in 10.0 mi SE 16.1 mph 21.9 mph N/A   Clear
5:55 PM 28.4 °F 17.0 °F 23.0 °F 80% 29.62 in 10.0 mi SE 15.0 mph 20.7 mph N/A   Clear
6:15 PM 28.4 °F 19.1 °F 23.0 °F 80% 29.62 in 10.0 mi ESE 10.4 mph - N/A   Clear
6:35 PM 28.4 °F 19.1 °F 23.0 °F 80% 29.63 in 10.0 mi ESE 10.4 mph - N/A   Scattered Clouds
6:55 PM 28.4 °F 18.5 °F 23.0 °F 80% 29.62 in 10.0 mi ESE 11.5 mph - N/A   Scattered Clouds
7:15 PM 26.6 °F 16.2 °F 23.0 °F 86% 29.61 in 10.0 mi ESE 11.5 mph - N/A   Clear
7:35 PM 26.6 °F 16.2 °F 23.0 °F 86% 29.61 in 10.0 mi ESE 11.5 mph - N/A   Clear
7:55 PM 26.6 °F 16.2 °F 23.0 °F 86% 29.60 in 10.0 mi ESE 11.5 mph - N/A   Clear
8:15 PM 26.6 °F 16.2 °F 23.0 °F 86% 29.60 in 10.0 mi ESE 11.5 mph - N/A   Clear
8:35 PM 26.6 °F 16.2 °F 23.0 °F 86% 29.60 in 10.0 mi ESE 11.5 mph - N/A   Clear
8:55 PM 26.6 °F 15.7 °F 23.0 °F 86% 29.59 in 10.0 mi ESE 12.7 mph - N/A   Clear
9:15 PM 26.6 °F 16.2 °F 23.0 °F 86% 29.59 in 10.0 mi ESE 11.5 mph - N/A   Clear
9:35 PM 26.6 °F 15.7 °F 23.0 °F 86% 29.58 in 10.0 mi ESE 12.7 mph - N/A   Clear
9:55 PM 26.6 °F 15.2 °F 21.2 °F 80% 29.57 in 10.0 mi ESE 13.8 mph - N/A   Clear
10:15 PM 26.6 °F 16.8 °F 21.2 °F 80% 29.56 in 10.0 mi ESE 10.4 mph - N/A   Clear
10:35 PM 26.6 °F 16.8 °F 21.2 °F 80% 29.56 in 10.0 mi ESE 10.4 mph - N/A   Clear
10:55 PM 26.6 °F 16.8 °F 23.0 °F 86% 29.55 in 10.0 mi SE 10.4 mph - N/A   Clear
11:15 PM 26.6 °F 15.7 °F 21.2 °F 80% 29.54 in 10.0 mi SE 12.7 mph - N/A   Clear
11:35 PM 26.6 °F 15.7 °F 21.2 °F 80% 29.53 in 10.0 mi ESE 12.7 mph - N/A   Clear
11:55 PM 26.6 °F 15.2 °F 21.2 °F 80% 29.51 in 10.0 mi ESE 13.8 mph - N/A   Clear